Location: Shepherdstown, WV
(39.4326°N, 77.8042°W)
Time: 14:58:29
(UTC-04:00)

Tiros 1 despin weight - Pass Details

Date: 04 August 2021
Orbit: 593 x 641 km, 48.2° (Epoch: 18 September)

Event Time Altitude Azimuth Distance (km) Brightness Sun altitude
Rises 19:17:02 0° 299° (WNW) 2,942 ? 10.7°
Reaches altitude 10° 19:19:25 10° 295° (WNW) 2,028 ? 10.3°
Maximum altitude 19:23:58 55° 218° (SW) 763 ? 9.4°
Drops below altitude 10° 19:28:29 10° 140° (SE) 2,001 ? 8.6°
Sets 19:30:49 0° 136° (SE) 2,899 ? 8.2°
